Lid_Strength_Index
7 9 11 9 8 8 9 10 11 9 7 8 10 9 8 7 7 8 7 6 6 5 3 3 3 2 2 1 2 1 1 1 1 1 1 1 1 1 0 -0 -1 -1 -1 -1
10 12 8 7 8 9 10 11 11 9 8 8 10 11 9 8 7 7 7 6 6 5 4 4 3 3 2 2 2 2 1 1 1 1 0 0 0 0 0 -0 -1 -1 -1 -1
11 9 8 9 9 10 11 11 11 11 9 8 9 12 11 9 7 7 6 5 5 5 4 5 4 3 3 2 2 2 1 1 0 -0 0 0 0 0 1 1 1 1 1 1
10 8 9 9 11 10 13 9 10 11 12 14 9 15 12 10 9 8 7 6 6 6 4 4 4 4 3 2 1 1 1 1 0 0 1 1 2 3 2 1 2 2 1 2
11 10 11 12 11 9 12 9 10 10 12 12 12 13 12 10 9 8 8 6 5 7 5 4 4 3 3 2 2 1 1 1 0 0 0 1 2 2 2 3 3 3 3 2
10 7 8 9 8 9 9 11 11 11 12 17 13 13 13 11 9 8 8 6 6 7 5 4 3 3 3 2 2 1 1 1 1 1 1 1 2 2 3 3 3 3 4 4
10 10 8 8 11 9 11 14 18 19 19 18 12 13 13 9 7 7 8 6 6 7 4 4 4 4 3 3 2 2 2 2 1 1 1 1 1 1 3 2 3 4 4 4
16 16 11 8 10 12 13 12 16 21 19 16 12 15 12 9 7 6 6 5 6 6 4 5 4 4 3 3 2 2 2 2 1 1 1 1 0 1 1 1 1 1 3 4
16 15 9 8 8 10 14 16 10 16 13 15 13 11 8 8 8 7 7 6 6 6 5 5 4 4 3 3 3 2 2 2 1 1 1 1 1 1 1 1 2 2 3 3
13 17 10 10 9 10 12 9 16 15 19 20 14 13 12 9 9 7 7 7 5 4 5 5 4 4 3 3 2 2 2 2 2 1 1 1 2 2 2 2 4 3 4 4
12 14 13 11 13 13 14 14 13 12 13 18 17 13 8 8 7 8 7 6 6 5 5 5 4 4 3 4 4 4 4 3 3 3 3 3 3 2 3 3 3 4 5 5
12 13 17 14 9 9 9 12 12 16 15 15 18 14 6 7 6 6 6 6 5 5 5 5 4 4 4 5 5 6 5 5 5 4 4 5 4 4 4 5 5 5 6 6
11 14 18 15 12 10 13 11 11 11 13 17 19 16 9 9 8 7 6 6 6 6 6 5 5 4 5 6 7 7 6 7 6 5 6 5 5 6 6 7 6 6 6 6
9 13 15 17 14 12 14 12 11 12 16 16 16 15 11 10 9 7 7 7 7 7 6 5 6 7 7 7 8 8 7 7 6 6 6 6 6 6 6 5 6 6 5 5
11 15 13 12 13 12 12 12 13 14 13 16 15 15 12 10 9 9 8 7 7 7 6 6 6 8 8 8 7 7 7 6 6 7 7 7 6 5 5 6 5 5 5 6
10 14 13 14 12 12 12 11 12 12 12 13 13 14 9 8 8 9 8 8 8 7 6 8 9 9 8 7 6 6 6 6 5 5 6 6 5 5 5 4 5 5 6 6
12 13 15 17 13 13 16 14 13 13 12 13 16 12 10 10 10 9 8 8 7 8 8 9 9 8 7 7 6 6 5 5 5 6 5 5 4 4 4 4 5 5 6 6
13 13 14 17 14 20 14 10 10 12 12 11 11 11 10 11 8 7 7 7 7 8 9 8 8 8 7 6 5 5 5 4 4 5 4 4 5 5 4 4 5 6 7 7
11 12 15 17 18 16 13 12 13 15 15 11 11 11 10 9 10 11 8 8 9 10 9 8 7 6 6 6 5 5 5 5 5 5 6 5 5 4 4 5 5 6 7 7
12 11 13 14 18 20 14 13 12 13 16 11 10 10 9 8 13 12 9 9 9 10 9 8 7 7 6 6 5 5 6 6 6 6 6 5 4 4 4 5 5 6 6 7
15 14 15 15 16 15 13 14 11 17 16 12 10 9 9 12 11 10 10 11 11 10 9 8 8 8 8 6 6 7 8 8 7 6 6 6 5 4 4 5 6 6 7 7
17 17 16 14 16 18 13 13 13 13 11 11 11 11 12 12 12 12 12 12 11 11 9 8 9 9 8 7 7 8 9 8 7 7 7 7 5 5 4 5 6 6 7 8
17 16 17 15 15 13 14 14 10 10 12 11 12 12 12 14 14 13 13 12 12 10 10 9 10 10 9 8 8 9 9 8 8 8 8 7 6 6 6 7 8 9 9 10
15 14 15 15 13 14 13 11 10 9 10 11 12 12 12 14 13 13 13 13 11 10 10 9 10 11 11 10 9 9 8 8 7 8 8 7 7 8 8 9 9 10 10 10
15 14 16 15 15 14 12 12 11 11 10 11 10 11 11 13 13 13 14 14 12 12 11 11 11 12 12 11 10 9 8 7 8 8 8 8 9 9 10 10 10 10 10 10
14 15 17 16 15 15 15 12 11 11 11 11 12 12 12 13 14 14 15 14 13 13 12 13 14 13 13 11 10 9 8 7 7 8 8 9 9 9 10 10 11 13 12 12